Location: Vassar Physics Lab
(41.6843°N, 73.8954°W)
Time: 19:56:02
(UTC-04:00)

CZ-4B DEB - Visible Passes

Search period start: 24 April 2014 00:00
Search period end: 04 May 2014 00:00
Orbit: 843 x 865 km, 98.8° (Epoch: 24 April)

Date Brightness Start Highest point End Pass type
(mag) Time Alt. Az. Time Alt. Az. Time Alt. Az.
24 Apr 6.4 03:20:38 10° NE 03:24:30 19° E 03:28:20 10° SE visible
24 Apr 4.4 05:00:14 10° N 05:05:36 57° WNW 05:10:58 10° SSW visible
25 Apr 6.7 03:10:25 10° NE 03:13:33 15° E 03:16:40 10° SE visible
25 Apr 4.2 04:49:20 10° N 04:54:49 71° WNW 05:00:17 10° SSW visible
26 Apr 6.8 03:00:36 10° ENE 03:02:35 12° E 03:04:34 10° ESE visible
26 Apr 4.2 04:38:29 10° NNE 04:44:01 87° WNW 04:49:32 10° SSW visible
27 Apr 4.4 04:27:41 10° NNE 04:33:12 77° ESE 04:38:42 10° S visible
28 Apr 4.6 04:16:54 10° NNE 04:22:21 62° ESE 04:27:49 10° S visible
29 Apr 5.0 04:06:10 10° NNE 04:11:30 49° E 04:16:50 10° S visible
30 Apr 5.4 03:55:28 10° NNE 04:00:38 40° E 04:05:47 10° SSE visible
01 May 5.7 03:44:51 10° NNE 03:49:44 32° E 03:54:37 10° SSE visible
02 May 6.1 03:34:17 10° NE 03:38:50 26° E 03:43:22 10° SSE visible
02 May 4.7 05:14:33 10° N 05:19:43 43° WNW 05:24:54 10° SW visible
03 May 6.4 03:23:50 10° NE 03:27:54 21° E 03:31:58 10° SE visible
03 May 4.5 05:03:36 10° N 05:08:57 53° WNW 05:14:19 10° SW visible
